FW8088 Weather Reports


time (UTC)temp
C
wind
direction
speed
KPH
gust
KPH
rain 1hr
cm
rain 24hr
cm
rain mn
cm
humidity
%
barometer
mb
20260510005916 11 152 1.6 1.6 0.05 1.14 1.14 98
20260510005412 11 109 0.0 0.0 0.13 1.14 1.14 98
20260510004910 11 130 1.6 3.2 0.20 1.14 1.14 98
20260510004407 11 138 0.0 1.6 0.28 1.14 1.14 98
20260510003905 11 138 1.6 1.6 0.36 1.14 1.14 98
20260510003401 11 77 0.0 0.0 0.43 1.14 1.14 98
20260510002900 11 115 1.6 3.2 0.48 1.14 1.14 98
20260510002358 11 94 0.0 0.0 0.58 1.14 1.14 98
20260510001854 11 74 0.0 0.0 0.81 1.14 1.14 97
20260510001352 11 60 0.0 0.0 0.86 1.14 1.14 97
20260510000848 11 101 1.6 3.2 0.86 1.14 1.14 97
20260510000348 11 82 0.0 0.0 0.81 1.09 1.09 97
20260509235842 11 13 1.6 3.2 0.74 1.02 1.02 96
20260509235339 11 72 0.0 0.0 0.69 0.97 0.97 96
20260509234835 11 105 0.0 1.6 0.61 0.89 0.89 96
20260509234332 11 14 0.0 0.0 0.53 0.81 0.81 95
20260509233830 11 305 1.6 1.6 0.43 0.71 0.71 95
20260509233327 11 289 8.0 9.7 0.38 0.66 0.66 94
20260509232822 12 314 11.3 12.9 0.28 0.56 0.56 92
20260509232321 13 317 6.4 8.0 0.05 0.33 0.33 86
20260509231817 16 275 12.9 17.7 0.00 0.28 0.28 78
20260509231314 17 308 1.6 1.6 0.00 0.28 0.28 68
20260509230812 18 22 0.0 1.6 0.00 0.28 0.28 65
20260509230308 18 127 1.6 1.6 0.00 0.28 0.28 65
20260509225803 18 91 0.0 1.6 0.00 0.28 0.28 65
20260509225300 18 146 3.2 3.2 0.00 0.28 0.28 65
20260509224756 18 136 4.8 8.0 0.00 0.28 0.28 65
20260509224253 18 192 3.2 3.2 0.00 0.28 0.28 64
20260509223749 18 148 6.4 11.3 0.00 0.28 0.28 64
20260509223247 18 118 3.2 4.8 0.00 0.28 0.28 63
20260509222743 18 73 3.2 3.2 0.00 0.28 0.28 63
20260509222239 18 123 9.7 12.9 0.00 0.28 0.28 63
20260509221734 18 174 1.6 1.6 0.00 0.28 0.28 63
20260509221231 18 155 1.6 3.2 0.00 0.28 0.28 62
20260509220727 18 129 4.8 8.0 0.00 0.28 0.28 60
20260509220224 18 102 3.2 4.8 0.00 0.28 0.28 61
20260509215719 19 108 9.7 14.5 0.00 0.28 0.28 60
20260509215216 19 117 3.2 4.8 0.00 0.28 0.28 60
20260509214713 20 107 4.8 8.0 0.00 0.28 0.28 59
20260509214210 20 230 4.8 4.8 0.00 0.28 0.28 60
20260509213707 20 145 6.4 11.3 0.00 0.28 0.28 59
20260509213202 19 59 0.0 1.6 0.00 0.28 0.28 60
20260509212701 19 125 3.2 4.8 0.00 0.28 0.28 61
20260509212157 19 154 4.8 8.0 0.00 0.28 0.28 60
20260509211653 19 182 1.6 1.6 0.00 0.28 0.28 59
20260509211149 19 125 9.7 16.1 0.00 0.28 0.28 59
20260509210646 18 169 1.6 3.2 0.00 0.28 0.28 62
20260509210143 18 155 6.4 8.0 0.00 0.28 0.28 62
20260509205639 18 118 1.6 4.8 0.00 0.28 0.28 62
20260509205133 18 299 3.2 3.2 0.00 0.28 0.28 61
20260509204629 18 169 3.2 4.8 0.00 0.28 0.28 61
20260509204126 18 137 3.2 3.2 0.00 0.28 0.28 60
20260509203622 18 168 9.7 11.3 0.00 0.28 0.28 61
20260509203120 18 176 3.2 8.0 0.00 0.28 0.28 63
20260509202620 18 93 3.2 4.8 0.00 0.28 0.28 63
20260509202115 18 94 4.8 4.8 0.00 0.28 0.28 61
20260509201610 18 156 3.2 4.8 0.00 0.28 0.28 63
20260509201109 18 204 1.6 1.6 0.00 0.28 0.28 65
20260509200603 18 171 11.3 14.5 0.00 0.28 0.28 62
20260509200059 18 153 6.4 8.0 0.00 0.28 0.28 63
20260509195555 18 133 8.0 9.7 0.00 0.28 0.28 64
20260509195050 18 148 3.2 3.2 0.00 0.28 0.28 64
20260509194549 18 148 1.6 3.2 0.00 0.28 0.28 66
20260509194047 18 145 8.0 11.3 0.00 0.28 0.28 65
20260509193542 18 138 1.6 3.2 0.00 0.28 0.28 66
20260509193039 18 85 0.0 0.0 0.00 0.28 0.28 68
20260509192536 17 159 0.0 1.6 0.00 0.28 0.28 68
20260509192031 17 192 1.6 1.6 0.00 0.28 0.28 67
20260509191525 17 160 9.7 14.5 0.00 0.28 0.28 67
20260509191021 17 157 6.4 8.0 0.00 0.28 0.28 66
20260509190519 17 114 4.8 8.0 0.00 0.28 0.28 68
20260509190017 17 131 3.2 3.2 0.00 0.28 0.28 68
20260509185514 17 172 4.8 4.8 0.00 0.28 0.28 69
20260509185010 17 127 3.2 3.2 0.00 0.28 0.28 69
20260509184509 17 144 3.2 3.2 0.00 0.28 0.28 73
20260509184004 17 169 9.7 14.5 0.00 0.28 0.28 69
20260509183459 17 91 1.6 3.2 0.00 0.28 0.28 70
20260509182955 17 186 3.2 4.8 0.00 0.28 0.28 70
20260509182452 17 133 6.4 11.3 0.00 0.28 0.28 70
20260509181949 17 138 4.8 8.0 0.00 0.28 0.28 71
20260509181447 17 179 3.2 3.2 0.00 0.28 0.28 71
20260509180944 17 88 0.0 1.6 0.00 0.28 0.28 71
20260509180440 18 63 0.0 0.0 0.00 0.28 0.28 72
20260509175937 18 142 0.0 1.6 0.00 0.28 0.28 70
20260509175433 17 209 3.2 3.2 0.00 0.28 0.28 70
20260509174929 17 66 0.0 0.0 0.00 0.28 0.28 73
20260509174426 17 211 4.8 8.0 0.00 0.28 0.28 71
20260509173922 17 145 9.7 12.9 0.00 0.28 0.28 71
20260509173421 17 126 1.6 1.6 0.00 0.28 0.28 72
20260509172918 17 162 0.0 0.0 0.00 0.28 0.28 70
20260509172415 17 162 3.2 4.8 0.00 0.28 0.28 69
20260509171910 17 167 1.6 3.2 0.00 0.28 0.28 72
20260509171407 17 295 1.6 1.6 0.00 0.28 0.28 74
20260509170903 17 320 0.0 0.0 0.00 0.28 0.28 76
20260509170359 17 155 4.8 11.3 0.00 0.28 0.28 76
20260509165854 16 283 1.6 3.2 0.00 0.28 0.28 77
20260509165349 16 4 0.0 0.0 0.00 0.28 0.28 80
20260509164845 16 1 1.6 3.2 0.00 0.28 0.28 80
20260509164341 15 181 3.2 3.2 0.00 0.28 0.28 81
20260509163837 15 131 4.8 4.8 0.00 0.28 0.28 81
20260509163334 15 145 1.6 3.2 0.00 0.28 0.28 84
20260509162834 15 31 0.0 0.0 0.00 0.28 0.28 84
20260509162332 14 125 0.0 0.0 0.00 0.28 0.28 86
20260509161829 14 314 0.0 1.6 0.00 0.28 0.28 87
20260509161325 13 80 0.0 0.0 0.00 0.28 0.28 89
20260509160821 13 331 0.0 0.0 0.00 0.28 0.28 89
20260509160316 13 100 0.0 1.6 0.00 0.28 0.28 88
20260509155812 13 75 1.6 1.6 0.00 0.28 0.28 87
20260509155309 13 85 0.0 1.6 0.00 0.28 0.28 87
20260509154805 13 87 0.0 0.0 0.00 0.28 0.28 91
20260509154302 13 94 0.0 0.0 0.00 0.28 0.28 91
20260509153759 13 44 0.0 0.0 0.00 0.28 0.28 92
20260509153255 12 268 1.6 1.6 0.00 0.28 0.28 93
20260509152752 12 122 0.0 0.0 0.00 0.28 0.28 93
20260509152248 12 137 1.6 1.6 0.00 0.28 0.28 94
20260509151745 12 103 1.6 1.6 0.00 0.28 0.28 94
20260509151241 12 80 0.0 0.0 0.00 0.28 0.28 94
20260509150740 12 116 0.0 0.0 0.00 0.28 0.28 94
20260509150238 12 78 0.0 0.0 0.00 0.28 0.28 95
20260509145735 12 156 0.0 3.2 0.00 0.28 0.28 95
20260509145234 12 154 0.0 0.0 0.03 0.28 0.28 95
20260509144731 11 32 0.0 0.0 0.03 0.28 0.28 95
20260509144228 11 103 1.6 1.6 0.03 0.28 0.28 95
20260509143725 11 72 0.0 0.0 0.03 0.28 0.28 96
20260509143223 11 80 0.0 1.6 0.03 0.28 0.28 96
20260509142718 11 99 0.0 0.0 0.03 0.28 0.28 96
20260509142215 11 123 4.8 4.8 0.03 0.28 0.28 96
20260509141710 11 114 1.6 1.6 0.03 0.28 0.28 97
20260509141208 11 50 0.0 0.0 0.03 0.28 0.28 97
20260509140704 11 42 0.0 0.0 0.03 0.28 0.28 97
20260509140202 11 151 0.0 0.0 0.03 0.28 0.28 97
20260509135659 11 107 1.6 1.6 0.03 0.28 0.28 97
20260509135157 11 170 0.0 1.6 0.00 0.25 0.25 97
20260509134653 11 105 0.0 0.0 0.00 0.25 0.25 97
20260509134151 11 95 0.0 0.0 0.00 0.25 0.25 97
20260509133648 11 83 0.0 0.0 0.00 0.25 0.25 97
20260509133145 10 87 0.0 0.0 0.00 0.25 0.25 97
20260509132643 10 145 3.2 3.2 0.00 0.25 0.25 98
20260509132141 10 95 3.2 4.8 0.00 0.25 0.25 98
20260509131637 10 103 1.6 1.6 0.00 0.25 0.25 98
20260509131134 10 123 0.0 0.0 0.00 0.25 0.25 98
20260509130630 10 166 3.2 4.8 0.00 0.25 0.25 98
20260509130126 10 73 0.0 0.0 0.00 0.25 0.25 98
20260509125623 10 162 0.0 0.0 0.00 0.25 0.25 98
20260509125120 10 156 1.6 3.2 0.00 0.25 0.25 99
20260509124616 10 149 3.2 4.8 0.00 0.25 0.25 99
20260509124114 10 108 0.0 0.0 0.00 0.25 0.25 99
20260509123612 10 84 0.0 0.0 0.00 0.25 0.25 99
20260509123108 10 95 0.0 0.0 0.00 0.25 0.25 99
20260509122604 10 78 0.0 0.0 0.00 0.25 0.25 99
20260509122102 10 109 0.0 1.6 0.00 0.25 0.25 99
20260509121558 10 77 1.6 3.2 0.00 0.25 0.25 99
20260509121055 10 105 0.0 1.6 0.00 0.25 0.25 99
20260509120553 10 145 1.6 1.6 0.00 0.25 0.25 99
20260509120052 10 107 1.6 1.6 0.00 0.25 0.25 99
20260509115548 10 153 1.6 3.2 0.00 0.25 0.25 99
20260509115046 10 92 0.0 0.0 0.00 0.25 0.25 99
20260509114544 10 40 0.0 0.0 0.00 0.25 0.25 99
20260509114043 10 140 3.2 3.2 0.00 0.25 0.25 99
20260509113540 10 139 0.0 0.0 0.00 0.25 0.25 99
20260509113038 10 83 0.0 0.0 0.00 0.25 0.25 99
20260509112534 10 85 0.0 0.0 0.00 0.25 0.25 99
20260509112031 10 79 0.0 0.0 0.00 0.25 0.25 99
20260509111528 10 166 1.6 1.6 0.00 0.25 0.25 99
20260509111026 10 119 1.6 1.6 0.00 0.25 0.25 99
20260509110522 10 121 0.0 0.0 0.00 0.25 0.25 99
20260509110019 10 83 0.0 0.0 0.00 0.25 0.25 99
20260509105517 10 81 0.0 0.0 0.00 0.25 0.25 99
20260509105015 10 132 0.0 0.0 0.00 0.25 0.25 99
20260509104511 10 179 1.6 3.2 0.00 0.25 0.25 99
20260509104008 10 154 0.0 1.6 0.00 0.25 0.25 99
20260509103506 10 115 0.0 0.0 0.00 0.25 0.25 99
20260509103004 10 164 1.6 1.6 0.00 0.25 0.25 99
20260509102502 10 131 1.6 1.6 0.00 0.25 0.25 99
20260509101958 10 89 0.0 0.0 0.00 0.25 0.25 99
20260509101454 10 140 0.0 1.6 0.00 0.25 0.25 99
20260509100951 10 113 0.0 1.6 0.00 0.25 0.25 99
20260509100448 10 89 1.6 3.2 0.00 0.25 0.25 99
20260509095945 9 84 0.0 0.0 0.00 0.25 0.25 99
20260509095442 10 171 0.0 0.0 0.00 0.25 0.25 99
20260509094939 10 71 0.0 0.0 0.00 0.25 0.25 99
20260509094435 10 86 0.0 0.0 0.00 0.25 0.25 99
20260509093933 10 110 1.6 1.6 0.00 0.25 0.25 99
20260509093430 10 112 0.0 0.0 0.00 0.25 0.25 99
20260509092928 10 161 0.0 1.6 0.00 0.25 0.25 99
20260509092426 10 94 0.0 0.0 0.00 0.25 0.25 99
20260509091925 9 73 0.0 0.0 0.00 0.25 0.25 99
20260509091421 9 74 0.0 0.0 0.00 0.25 0.25 99
20260509090918 9 57 0.0 0.0 0.00 0.25 0.25 99
20260509090415 9 135 1.6 1.6 0.00 0.25 0.25 99
20260509085913 9 167 6.4 9.7 0.00 0.25 0.25 99
20260509085410 9 133 3.2 4.8 0.00 0.25 0.25 99
20260509084906 9 159 0.0 1.6 0.00 0.25 0.25 99
20260509084403 9 92 0.0 0.0 0.00 0.25 0.25 99
20260509083901 10 110 1.6 1.6 0.00 0.25 0.25 99
20260509083357 9 99 0.0 0.0 0.00 0.25 0.25 99
20260509082854 9 74 0.0 0.0 0.00 0.25 0.25 99
20260509082351 9 165 3.2 3.2 0.00 0.25 0.25 99
20260509081848 10 103 1.6 3.2 0.03 0.25 0.25 99
20260509081345 9 82 0.0 0.0 0.05 0.25 0.25 99
20260509080843 9 60 0.0 0.0 0.05 0.25 0.25 99
20260509080341 9 97 0.0 0.0 0.05 0.25 0.25 99
20260509075839 9 84 0.0 0.0 0.05 0.25 0.25 99
20260509075335 9 83 0.0 0.0 0.05 0.25 0.25 99
20260509074832 9 120 0.0 0.0 0.05 0.25 0.25 99
20260509074330 9 83 0.0 0.0 0.05 0.25 0.25 99
20260509073826 9 106 0.0 0.0 0.05 0.25 0.25 99
20260509073323 9 72 0.0 0.0 0.05 0.25 0.25 99
20260509072820 9 84 0.0 0.0 0.05 0.25 0.25 99
20260509072316 9 83 0.0 0.0 0.03 0.23 0.23 99
20260509071813 9 114 0.0 0.0 0.00 0.20 0.20 99
20260509071310 9 85 0.0 0.0 0.00 0.20 0.20 99
20260509070807 9 65 0.0 0.0 0.00 0.20 0.20 99
20260509070304 9 83 0.0 0.0 0.00 0.20 0.20 99
20260509065800 9 130 0.0 0.0 0.00 0.20 0.20 99
20260509065256 9 148 0.0 0.0 0.03 0.20 0.20 99
20260509064752 9 93 0.0 0.0 0.03 0.20 0.20 99
20260509064250 9 82 0.0 0.0 0.05 0.20 0.20 99
20260509063747 9 160 1.6 1.6 0.05 0.20 0.20 99
20260509063244 9 95 0.0 0.0 0.05 0.20 0.20 99
20260509062741 9 48 0.0 0.0 0.05 0.20 0.20 99
20260509062238 9 72 0.0 0.0 0.08 0.20 0.20 99
20260509061735 9 89 0.0 0.0 0.08 0.20 0.20 99
20260509061233 9 68 0.0 0.0 0.10 0.20 0.20 99
20260509060730 9 76 0.0 0.0 0.10 0.20 0.20 99
20260509060226 9 139 3.2 4.8 0.10 0.20 0.20 99
20260509055722 10 135 1.6 1.6 0.10 0.20 0.20 99
20260509055218 9 88 0.0 0.0 0.08 0.18 0.18 99
20260509054714 10 184 0.0 0.0 0.10 0.18 0.18 99
20260509054212 10 72 0.0 0.0 0.08 0.15 0.15 99
20260509053711 10 98 1.6 3.2 0.13 0.15 0.15 99
20260509053207 10 80 1.6 3.2 0.13 0.15 0.15 99
20260509052705 10 105 0.0 0.0 0.13 0.13 0.13 99
20260509052202 10 191 0.0 0.0 0.13 0.13 0.13 99
20260509051700 10 190 3.2 3.2 0.13 0.13 0.13 99
20260509051157 10 169 3.2 3.2 0.10 0.10 0.10 99
20260509050654 10 169 1.6 1.6 0.10 0.10 0.10 99
20260509050150 10 81 0.0 0.0 0.10 0.10 0.10 99
20260509045648 10 144 1.6 3.2 0.10 0.10 0.10 99
20260509045144 10 124 0.0 0.0 0.10 0.10 0.10 99
20260509044641 10 123 1.6 1.6 0.08 0.08 0.08 99
20260509044139 9 128 0.0 1.6 0.08 0.08 0.08 99
20260509043636 9 108 0.0 0.0 0.03 0.03 0.03 99
20260509043131 9 104 0.0 0.0 0.00 0.00 0.00 99
20260509042628 9 122 0.0 0.0 0.00 0.00 0.00 99
20260509042124 9 83 0.0 0.0 0.00 0.00 0.00 99
20260509041621 9 179 0.0 1.6 0.00 0.00 0.00 99
20260509041118 9 109 0.0 0.0 0.00 0.00 0.00 99
20260509040617 9 89 0.0 0.0 0.00 0.00 0.00 99
20260509040114 9 175 1.6 3.2 0.00 0.00 0.00 99
20260509035610 9 172 0.0 0.0 0.00 0.86 0.86 99
20260509035107 9 83 0.0 0.0 0.03 0.86 0.86 98
20260509034605 9 112 0.0 0.0 0.03 0.86 0.86 98
20260509034101 9 94 0.0 0.0 0.03 0.86 0.86 98
20260509033558 9 166 0.0 1.6 0.03 0.86 0.86 98
20260509033055 10 139 0.0 0.0 0.03 0.86 0.86 98
20260509032553 10 133 0.0 0.0 0.03 0.86 0.86 98
20260509032049 10 83 0.0 0.0 0.03 0.86 0.86 98
20260509031547 10 149 0.0 3.2 0.03 0.86 0.86 98
20260509031044 10 162 3.2 3.2 0.03 0.86 0.86 98
20260509030543 10 84 0.0 0.0 0.03 0.86 0.86 98
20260509030039 10 98 0.0 0.0 0.05 0.86 0.86 98
20260509025535 10 167 3.2 3.2 0.05 0.86 0.86 98
20260509025031 10 81 0.0 0.0 0.03 0.84 0.84 98
20260509024527 10 104 0.0 0.0 0.05 0.84 0.84 98
20260509024023 10 109 1.6 1.6 0.05 0.84 0.84 98
20260509023521 10 81 0.0 0.0 0.08 0.84 0.84 98
20260509023018 10 109 0.0 0.0 0.08 0.84 0.84 98
20260509022514 10 113 0.0 0.0 0.10 0.84 0.84 98
20260509022012 10 126 0.0 0.0 0.13 0.84 0.84 98
20260509021509 10 113 1.6 1.6 0.15 0.84 0.84 98
20260509021006 10 125 0.0 1.6 0.18 0.84 0.84 98
20260509020504 10 80 0.0 0.0 0.18 0.81 0.81 98
20260509020001 10 96 0.0 0.0 0.20 0.81 0.81 98
20260509015500 9 84 0.0 1.6 0.23 0.81 0.81 98
20260509014956 9 84 0.0 0.0 0.23 0.79 0.79 98
20260509014453 9 131 1.6 1.6 0.25 0.79 0.79 98
20260509013949 9 84 0.0 0.0 0.28 0.79 0.79 97
20260509013447 9 80 0.0 0.0 0.25 0.76 0.76 97
20260509012942 9 91 0.0 0.0 0.25 0.74 0.74 97
20260509012439 9 95 0.0 1.6 0.25 0.71 0.71 97
20260509011935 9 91 0.0 0.0 0.25 0.69 0.69 97
20260509011433 9 86 0.0 0.0 0.25 0.66 0.66 97
20260509010930 9 84 0.0 0.0 0.25 0.64 0.64 97
20260509010428 9 94 0.0 0.0 0.23 0.61 0.61 96